Tel Aviv, Israel

5:31 AM IDT on April 26, 2018 (GMT +0300)
Ben Gurion

Weather History for LLBG - October, 2011

Change the Weather History Date:

Monday, October 24, 2011

  Actual Average Record
Temperature  
Mean Temperature 73 °F -  
Max Temperature 81 °F 75 °F 88 °F (2015)
Min Temperature 65 °F 58 °F 53 °F (1997)
Cooling Degree Days 8    
Growing Degree Days 23 (Base 50)    
Moisture  
Dew Point 58 °F    
Average Humidity 58    
Maximum Humidity 73    
Minimum Humidity 43    
Precipitation  
Precipitation 0.00 in - - ()
Sea Level Pressure  
Sea Level Pressure 29.93 in    
Wind  
Wind Speed 3 mph ()    
Max Wind Speed 10 mph    
Max Gust Speed -    
Visibility 6.2 miles    
Events      
Averages and records for this station are not official NWS values.
T = Trace of Precipitation, MM = Missing Value Source: Averaged Metar Reports

Daily Weather History Graph

Daily Weather History Graph

Search for Another Location

Airport or City:

Astronomy

Oct. 24, 2011 Rise Set
Actual Time 5:50 AM IST 4:58 PM IST
Civil Twilight 5:25 AM IST 5:23 PM IST
Nautical Twilight 4:56 AM IST 5:52 PM IST
Astronomical Twilight 4:28 AM IST 6:20 PM IST
Moon 2:52 AM IST (10/24) 3:05 PM IST (10/24)
Length of Visible Light 11h 58m
Length of Day
11h 08m
Waning Crescent, 9% of the Moon is Illuminated
Oct 24
Waning Crescent
Oct 26
New
Nov 2
First Quarter
Nov 10
Full
Nov 18
Last Quarter

Hourly Weather History & Observations

Time (IST) Temp. Heat Index Dew Point Humidity Pressure Visibility Wind Dir Wind Speed Gust Speed Precip Events Conditions
12:50 AM 68.0 °F - 57.2 °F 68% 29.92 in - East 3.5 mph - N/A   Clear
1:50 AM 66.2 °F - 57.2 °F 73% 29.92 in - ENE 2.3 mph - N/A   Clear
2:00 AM 67 °F - 57 °F 62% 30.10 in 6 mi ENE 2.3 mph - -   Clear
2:50 AM 66.2 °F - 57.2 °F 73% 29.89 in - ESE 2.3 mph - N/A   Clear
3:50 AM 66.2 °F - 55.4 °F 68% 29.92 in 6.2 mi Variable 1.2 mph - N/A   Scattered Clouds
4:50 AM 66.2 °F - 53.6 °F 64% 29.92 in 6.2 mi East 2.3 mph - N/A   Scattered Clouds
5:50 AM 66.2 °F - 53.6 °F 64% 29.92 in 6.2 mi East 1.2 mph - N/A   Scattered Clouds
6:50 AM 68.0 °F - 53.6 °F 60% 29.92 in - ENE 1.2 mph - N/A   Clear
7:50 AM 71.6 °F - 55.4 °F 57% 29.95 in - NNE 1.2 mph - N/A   Clear
8:00 AM 72 °F - 55 °F 45% 29.95 in 6 mi NNE 1.2 mph - -   Clear
8:50 AM 75.2 °F - 60.8 °F 61% 29.95 in 6.2 mi North 4.6 mph - N/A   Partly Cloudy
9:50 AM 77.0 °F - 59.0 °F 54% 29.95 in 6.2 mi NW 4.6 mph - N/A   Scattered Clouds
10:50 AM 78.8 °F - 59.0 °F 51% 29.92 in 6.2 mi West 5.8 mph - N/A   Mostly Cloudy
11:50 AM 80.6 °F 80.8 °F 57.2 °F 45% 29.92 in 6.2 mi WNW 6.9 mph - N/A   Mostly Cloudy
12:50 PM 78.8 °F - 59.0 °F 51% 29.89 in 6.2 mi West 10.4 mph - N/A   Mostly Cloudy
1:50 PM 78.8 °F - 59.0 °F 51% 29.89 in 6.2 mi NW 9.2 mph - N/A   Mostly Cloudy
2:00 PM 78 °F - 60 °F 43% 29.90 in 6 mi NW 9.2 mph - -   Scattered Clouds
2:50 PM 78.8 °F - 59.0 °F 51% 29.89 in 6.2 mi NW 10.4 mph - N/A   Scattered Clouds
3:50 PM 77.0 °F - 60.8 °F 57% 29.89 in 6.2 mi NW 9.2 mph - N/A   Mostly Cloudy
4:50 PM 75.2 °F - 60.8 °F 61% 29.92 in 6.2 mi NW 8.1 mph - N/A   Scattered Clouds
5:50 PM 75.2 °F - 60.8 °F 61% 29.92 in 6.2 mi NW 5.8 mph - N/A   Mostly Cloudy
6:50 PM 75.2 °F - 59.0 °F 57% 29.95 in 6.2 mi NW 4.6 mph - N/A   Mostly Cloudy
7:50 PM 73.4 °F - 57.2 °F 57% 29.95 in 6.2 mi NNE 2.3 mph - N/A   Partly Cloudy
8:00 PM 74 °F - 58 °F 47% 29.95 in 6 mi NNE 2.3 mph - -   Scattered Clouds
8:50 PM 73.4 °F - 57.2 °F 57% 29.95 in 6.2 mi East 3.5 mph - N/A   Scattered Clouds
9:50 PM 71.6 °F - 59.0 °F 64% 29.95 in 6.2 mi ESE 2.3 mph - N/A   Scattered Clouds
10:50 PM 71.6 °F - 59.0 °F 64% 29.95 in 6.2 mi East 2.3 mph - N/A   Scattered Clouds
11:50 PM 69.8 °F - 59.0 °F 68% 29.95 in 6.2 mi East 2.3 mph - N/A   Partly Cloudy